Location: Petruro
(41.0333°N, 14.7833°E)
Time: 11:25:28
(UTC+00:00)

Cosmos 1766 Rocket - Pass Details

Date: 20 June 2021
Orbit: 604 x 633 km, 82.5° (Epoch: 27 July)

Event Time Altitude Azimuth Distance (km) Brightness Sun altitude
Exits shadow 01:21:58 22° 162° (SSE) 1,386 5.0 -17.9°
Maximum altitude 01:24:39 53° 94° (E) 776 4.2 -17.6°
Drops below altitude 10° 01:29:01 10° 17° (NNE) 2,023 7.3 -17.1°
Sets 01:31:18 0° 13° (NNE) 2,938 8.3 -16.9°
